Location: Unspecified
(35.6961°N, 0.0000°E)
Time: 09:50:45
(UTC+00:00)

Altair - Pass Details

Date: 24 May 2019
Orbit: 1501 x 1683 km, 47.2° (Epoch: 18 June)

Event Time Altitude Azimuth Distance (km) Brightness Sun altitude
Rises 02:47:55 0° 224° (SW) 4,862 - -20.6°
Reaches altitude 10° 02:51:02 10° 222° (SW) 3,895 - -20.1°
Exits shadow 02:54:49 27° 218° (SW) 2,786 8.2 -19.6°
Maximum altitude 03:01:02 73° 140° (SE) 1,739 7.7 -18.7°
Drops below altitude 10° 03:11:09 10° 58° (ENE) 3,943 10.9 -17.2°
Sets 03:14:19 0° 57° (ENE) 4,925 11.9 -16.8°
